Terminal Aerodrome Forecast
Issued by NWS Boston, MA

Home | Current Version | Previous Version | Text Only | Print | Product List | Glossary On
Versions: 1 2 3 4 5 6 7 8 9 10 11 12 13 14 15 16 17 18 19 20 21 22 23 24 25 26 27 28 29 30 31 32 33 34 35 36 37 38
000
FTUS41 KBOX 192340
TAFORH
TAF
KORH 192340Z 2000/2024 33007KT P6SM BKN025
     FM200300 33006KT P6SM BKN100
     FM200500 33006KT P6SM SCT200
     FM201500 01005KT P6SM BKN080
     FM202000 02004KT P6SM BKN025=

USA.gov is the U.S. government's official web portal to all federal, state and local government web resources and services.